Location: Albany
(35.0000°S, 118.0000°E)
Time: 23:27:57
(UTC-04:00)

JAS-1B - Visible Passes

Search period start: 24 October 2014 00:00
Search period end: 02 November 2014 23:00
Orbit: 911 x 1744 km, 99.1° (Epoch: 24 October)

Date Brightness Start Highest point End Pass type
(mag) Time Alt. Az. Time Alt. Az. Time Alt. Az.
24 Oct 9.6 11:25:16 20° ESE 11:27:57 22° ESE 11:34:54 10° SSE visible
24 Oct 8.0 13:17:31 83° SSW 13:17:31 83° SSW 13:27:05 10° SSW visible
24 Oct 9.4 15:09:46 18° WSW 15:09:46 18° WSW 15:14:54 10° SW visible
25 Oct 9.3 11:44:32 27° E 11:46:37 29° ESE 11:54:37 10° S visible
25 Oct 8.1 13:36:47 69° WSW 13:36:47 69° WSW 13:46:07 10° SSW visible
25 Oct 9.6 15:29:03 13° WSW 15:29:03 13° WSW 15:31:56 10° WSW visible
26 Oct 9.0 12:03:49 36° E 12:05:21 38° ESE 12:14:09 10° S visible
26 Oct 8.3 13:56:04 54° W 13:56:04 54° W 14:05:02 10° SSW visible
27 Oct 8.7 12:23:06 47° E 12:24:11 49° ESE 12:33:34 10° S visible
27 Oct 8.6 14:15:21 41° W 14:15:21 41° W 14:23:49 10° SSW visible
28 Oct 10.1 10:50:11 10° E 10:54:37 14° SE 10:59:04 10° SSE visible
28 Oct 8.3 12:42:23 62° E 12:43:05 63° ESE 12:52:51 10° S visible
28 Oct 8.9 14:34:39 31° W 14:34:39 31° W 14:42:23 10° SSW visible
29 Oct 9.8 11:09:26 15° E 11:13:11 19° SE 11:19:23 10° SSE visible
29 Oct 8.1 13:01:41 79° E 13:02:03 80° ESE 13:12:03 10° S visible
29 Oct 9.2 14:53:56 23° W 14:53:56 23° W 15:00:39 10° SW visible
30 Oct 9.6 11:28:44 22° E 11:31:49 25° ESE 11:39:14 10° S visible
30 Oct 8.0 13:20:59 82° WNW 13:21:06 82° WNW 13:31:09 10° SSW visible
30 Oct 9.5 15:13:14 17° W 15:13:14 17° W 15:18:24 10° SW visible
31 Oct 9.2 11:48:02 29° E 11:50:32 33° ESE 11:58:51 10° S visible
31 Oct 8.1 13:40:17 64° W 13:40:17 64° W 13:50:08 10° SSW visible
31 Oct 9.7 15:32:32 11° W 15:32:32 11° W 15:34:27 10° WSW visible
01 Nov 8.9 12:07:20 39° E 12:09:20 42° ESE 12:18:19 10° S visible
01 Nov 8.4 13:59:36 50° W 13:59:36 50° W 14:08:59 10° SSW visible
02 Nov 10.2 09:37:05 10° ESE 09:39:53 12° SE 09:42:40 10° SE visible
02 Nov 8.6 11:26:39 51° E 11:28:12 55° ESE 11:37:40 10° S visible
02 Nov 8.7 13:18:54 38° W 13:18:54 38° W 13:27:40 10° SSW visible
